| time (UTC) | temp F | wind direction | speed knots | gust knots | rain 1hr in | rain 24hr in | rain mn in | humidity % | barometer mb |
| 20260509112404 | 53 | 138 | 0.0 | 0.9 | 0.00 | 0.00 | 0.00 | 91 | 1008.0 |
| 20260509111404 | 52 | 137 | 0.0 | 1.7 | 0.00 | 0.00 | 0.00 | 93 | 1008.0 |
| 20260509110904 | 52 | 121 | 0.0 | 0.9 | 0.00 | 0.00 | 0.00 | 93 | 1007.9 |
| 20260509110404 | 52 | 122 | 0.0 | 1.7 | 0.00 | 0.00 | 0.00 | 94 | 1007.9 |
| 20260509105903 | 52 | 118 | 0.0 | 1.7 | 0.00 | 0.00 | 0.00 | 94 | 1007.9 |
| 20260509105404 | 51 | 106 | 0.9 | 0.9 | 0.00 | 0.00 | 0.00 | 95 | 1007.8 |
| 20260509104904 | 51 | 83 | 0.0 | 0.9 | 0.00 | 0.00 | 0.00 | 96 | 1007.8 |
| 20260509104404 | 51 | 314 | 0.0 | 0.0 | 0.00 | 0.00 | 0.00 | 96 | 1007.8 |
| 20260509103904 | 51 | 314 | 0.0 | 0.0 | 0.00 | 0.00 | 0.00 | 96 | 1007.7 |
| 20260509102904 | 51 | 314 | 0.0 | 0.0 | 0.00 | 0.00 | 0.00 | 96 | 1007.6 |
| 20260509101904 | 50 | 141 | 0.0 | 0.0 | 0.00 | 0.00 | 0.00 | 96 | 1007.4 |
| 20260509101404 | 50 | 141 | 0.0 | 0.0 | 0.00 | 0.00 | 0.00 | 96 | 1007.5 |
| 20260509100904 | 50 | 141 | 0.0 | 0.0 | 0.00 | 0.00 | 0.00 | 96 | 1007.4 |
| 20260509095904 | 50 | 130 | 0.0 | 0.0 | 0.00 | 0.00 | 0.00 | 96 | 1007.4 |
| 20260509095404 | 50 | 130 | 0.0 | 0.0 | 0.00 | 0.00 | 0.00 | 96 | 1007.4 |
| 20260509094904 | 50 | 130 | 0.0 | 0.0 | 0.00 | 0.00 | 0.00 | 96 | 1007.4 |
| 20260509094404 | 50 | 130 | 0.0 | 0.0 | 0.00 | 0.00 | 0.00 | 96 | 1007.4 |
| 20260509093904 | 50 | 130 | 0.0 | 0.0 | 0.00 | 0.00 | 0.00 | 96 | 1007.5 |
| 20260509093404 | 50 | 130 | 0.0 | 0.9 | 0.00 | 0.00 | 0.00 | 96 | 1007.4 |
| 20260509092904 | 50 | 53 | 0.0 | 0.9 | 0.00 | 0.00 | 0.00 | 96 | 1007.4 |
| 20260509092403 | 50 | 34 | 0.0 | 0.0 | 0.00 | 0.00 | 0.00 | 96 | 1007.3 |
| 20260509091904 | 50 | 34 | 0.0 | 0.0 | 0.00 | 0.00 | 0.00 | 96 | 1007.3 |
| 20260509091404 | 50 | 34 | 0.0 | 0.0 | 0.00 | 0.00 | 0.00 | 96 | 1007.1 |
| 20260509090904 | 50 | 34 | 0.0 | 0.0 | 0.00 | 0.00 | 0.00 | 96 | 1007.1 |
| 20260509090403 | 50 | 34 | 0.0 | 0.0 | 0.00 | 0.00 | 0.00 | 95 | 1007.3 |
| 20260509084904 | 50 | 42 | 0.0 | 0.0 | 0.00 | 0.00 | 0.00 | 95 | 1007.5 |
| 20260509084403 | 50 | 42 | 0.0 | 0.9 | 0.00 | 0.00 | 0.00 | 95 | 1007.5 |
| 20260509083419 | 50 | 45 | 0.0 | 0.0 | 0.00 | 0.00 | 0.00 | 95 | 1007.6 |
| 20260509082904 | 50 | 45 | 0.0 | 0.0 | 0.00 | 0.00 | 0.00 | 95 | 1007.6 |
| 20260509082404 | 50 | 45 | 0.0 | 0.0 | 0.00 | 0.00 | 0.00 | 95 | 1007.6 |
| 20260509081904 | 50 | 45 | 0.0 | 0.9 | 0.00 | 0.00 | 0.00 | 94 | 1007.7 |
| 20260509080904 | 50 | 138 | 0.0 | 0.0 | 0.00 | 0.00 | 0.00 | 94 | 1007.7 |
| 20260509080404 | 50 | 138 | 0.9 | 0.9 | 0.00 | 0.00 | 0.00 | 94 | 1007.5 |
| 20260509075904 | 50 | 151 | 0.0 | 0.9 | 0.00 | 0.00 | 0.00 | 94 | 1007.5 |
| 20260509075403 | 50 | 151 | 0.0 | 1.7 | 0.00 | 0.00 | 0.00 | 95 | 1007.5 |
| 20260509074904 | 50 | 38 | 0.0 | 0.9 | 0.00 | 0.00 | 0.00 | 94 | 1007.5 |
| 20260509072904 | 50 | 40 | 0.0 | 0.0 | 0.00 | 0.00 | 0.00 | 94 | 1007.4 |
| 20260509072404 | 50 | 40 | 0.0 | 0.0 | 0.00 | 0.00 | 0.00 | 94 | 1007.4 |
| 20260509071904 | 50 | 40 | 0.0 | 0.0 | 0.00 | 0.00 | 0.00 | 94 | 1007.4 |
| 20260509071404 | 50 | 40 | 0.0 | 0.0 | 0.00 | 0.00 | 0.00 | 93 | 1007.4 |
| 20260509070904 | 50 | 40 | 0.0 | 0.9 | 0.00 | 0.00 | 0.00 | 93 | 1007.4 |
| 20260509070403 | 50 | 66 | 0.0 | 0.9 | 0.00 | 0.00 | 0.00 | 92 | 1007.5 |
| 20260509065903 | 51 | 138 | 0.0 | 0.0 | 0.00 | 0.00 | 0.00 | 92 | 1007.7 |
| 20260509065404 | 51 | 138 | 0.0 | 0.0 | 0.00 | 0.00 | 0.00 | 91 | 1007.7 |
| 20260509064904 | 51 | 138 | 0.0 | 0.0 | 0.00 | 0.00 | 0.00 | 90 | 1007.6 |
| 20260509064404 | 51 | 138 | 0.0 | 0.9 | 0.00 | 0.00 | 0.00 | 89 | 1007.9 |
| 20260509063904 | 51 | 131 | 0.0 | 0.0 | 0.00 | 0.00 | 0.00 | 89 | 1008.0 |
| 20260509063404 | 50 | 131 | 0.0 | 1.7 | 0.00 | 0.00 | 0.00 | 88 | 1008.1 |
| 20260509062904 | 50 | 129 | 0.0 | 0.0 | 0.00 | 0.00 | 0.00 | 88 | 1008.0 |
| 20260509062404 | 50 | 129 | 0.0 | 0.0 | 0.00 | 0.00 | 0.00 | 88 | 1008.0 |
| 20260509061904 | 51 | 129 | 0.0 | 0.0 | 0.00 | 0.00 | 0.00 | 88 | 1007.9 |
| 20260509060904 | 50 | 119 | 0.0 | 0.9 | 0.00 | 0.00 | 0.00 | 88 | 1008.0 |
| 20260509060404 | 50 | 117 | 0.0 | 0.0 | 0.00 | 0.00 | 0.00 | 88 | 1008.0 |
| 20260509055904 | 50 | 117 | 0.0 | 1.7 | 0.00 | 0.00 | 0.00 | 88 | 1008.0 |
| 20260509055404 | 50 | 44 | 0.0 | 1.7 | 0.00 | 0.00 | 0.00 | 88 | 1008.0 |
| 20260509054903 | 50 | 357 | 0.0 | 0.0 | 0.00 | 0.00 | 0.00 | 88 | 1008.0 |
| 20260509054403 | 50 | 357 | 0.0 | 0.0 | 0.00 | 0.00 | 0.00 | 88 | 1007.9 |
| 20260509053904 | 50 | 357 | 0.0 | 0.0 | 0.00 | 0.00 | 0.00 | 88 | 1007.9 |
| 20260509053403 | 49 | 357 | 0.0 | 0.9 | 0.00 | 0.00 | 0.00 | 87 | 1007.9 |
| 20260509052904 | 49 | 134 | 0.0 | 0.9 | 0.00 | 0.00 | 0.00 | 88 | 1007.9 |
| 20260509052404 | 49 | 0 | 0.0 | 0.0 | 0.00 | 0.00 | 0.00 | 90 | 1007.8 |
| 20260509051904 | 49 | 0 | 0.0 | 0.9 | 0.00 | 0.00 | 0.00 | 90 | 1007.8 |
| 20260509051403 | 48 | 27 | 0.0 | 0.0 | 0.00 | 0.00 | 0.00 | 90 | 1007.8 |
| 20260509050403 | 49 | 27 | 0.0 | 0.0 | 0.00 | 0.00 | 0.00 | 90 | 1008.0 |
| 20260509045904 | 49 | 27 | 0.0 | 0.0 | 0.00 | 0.00 | 0.00 | 89 | 1008.0 |
| 20260509045404 | 49 | 27 | 0.0 | 0.0 | 0.00 | 0.00 | 0.00 | 88 | 1008.0 |
| 20260509044904 | 49 | 27 | 0.0 | 0.0 | 0.00 | 0.00 | 0.00 | 87 | 1007.9 |
| 20260509044403 | 50 | 27 | 0.0 | 0.0 | 0.00 | 0.00 | 0.00 | 86 | 1007.9 |
| 20260509043904 | 50 | 10 | 0.0 | 0.9 | 0.00 | 0.00 | 0.00 | 85 | 1007.8 |
| 20260509043403 | 51 | 333 | 0.0 | 0.0 | 0.00 | 0.00 | 0.00 | 84 | 1007.8 |
| 20260509042405 | 51 | 333 | 0.0 | 0.0 | 0.00 | 0.00 | 0.00 | 83 | 1007.8 |
| 20260509041903 | 51 | 333 | 0.0 | 0.0 | 0.00 | 0.00 | 0.00 | 83 | 1007.9 |
| 20260509041404 | 51 | 333 | 0.0 | 0.0 | 0.00 | 0.00 | 0.00 | 82 | 1008.0 |
| 20260509040903 | 52 | 333 | 0.0 | 0.0 | 0.00 | 0.00 | 0.00 | 82 | 1008.0 |
| 20260509035904 | 52 | 333 | 0.0 | 0.0 | 0.00 | 0.00 | 0.00 | 82 | 1008.1 |
| 20260509034904 | 52 | 333 | 0.0 | 0.0 | 0.00 | 0.00 | 0.00 | 82 | 1008.2 |
| 20260509034404 | 52 | 333 | 0.0 | 0.0 | 0.00 | 0.00 | 0.00 | 81 | 1008.2 |
| 20260509033904 | 52 | 333 | 0.0 | 0.0 | 0.00 | 0.00 | 0.00 | 81 | 1008.1 |
| 20260509032904 | 52 | 338 | 0.0 | 0.0 | 0.00 | 0.00 | 0.00 | 81 | 1008.2 |
| 20260509032404 | 52 | 0 | 0.0 | 0.9 | 0.00 | 0.00 | 0.00 | 81 | 1008.2 |
| 20260509031404 | 52 | 31 | 0.0 | 0.0 | 0.00 | 0.00 | 0.00 | 82 | 1008.2 |
| 20260509030904 | 52 | 31 | 0.0 | 0.0 | 0.00 | 0.00 | 0.00 | 82 | 1008.2 |
| 20260509030404 | 52 | 31 | 0.0 | 0.0 | 0.00 | 0.00 | 0.00 | 82 | 1008.2 |
| 20260509025904 | 52 | 31 | 0.0 | 0.0 | 0.00 | 0.00 | 0.00 | 82 | 1008.2 |
| 20260509025404 | 52 | 31 | 0.0 | 0.0 | 0.00 | 0.00 | 0.00 | 82 | 1008.2 |
| 20260509024904 | 52 | 20 | 0.0 | 0.9 | 0.00 | 0.00 | 0.00 | 83 | 1008.1 |
| 20260509024404 | 52 | 5 | 0.0 | 0.9 | 0.00 | 0.00 | 0.00 | 82 | 1008.1 |
| 20260509023904 | 51 | 14 | 0.0 | 0.9 | 0.00 | 0.00 | 0.00 | 83 | 1008.1 |
| 20260509023404 | 51 | 354 | 0.0 | 0.0 | 0.00 | 0.00 | 0.00 | 83 | 1008.2 |
| 20260509022903 | 51 | 354 | 0.0 | 1.7 | 0.00 | 0.00 | 0.00 | 83 | 1008.3 |
| 20260509022404 | 51 | 33 | 0.0 | 0.9 | 0.00 | 0.00 | 0.00 | 84 | 1008.2 |
| 20260509021903 | 51 | 102 | 0.0 | 0.0 | 0.00 | 0.00 | 0.00 | 84 | 1008.1 |
| 20260509021404 | 51 | 102 | 0.0 | 0.9 | 0.00 | 0.00 | 0.00 | 84 | 1008.1 |
| 20260509020903 | 51 | 73 | 0.0 | 0.9 | 0.00 | 0.00 | 0.00 | 84 | 1008.1 |
| 20260509020403 | 51 | 89 | 0.0 | 0.0 | 0.00 | 0.00 | 0.00 | 84 | 1008.1 |
| 20260509015904 | 51 | 89 | 0.0 | 0.9 | 0.00 | 0.00 | 0.00 | 83 | 1008.0 |
| 20260509015403 | 51 | 118 | 0.0 | 1.7 | 0.00 | 0.00 | 0.00 | 84 | 1008.0 |
| 20260509014904 | 50 | 179 | 0.0 | 0.0 | 0.00 | 0.00 | 0.00 | 84 | 1007.9 |
| 20260509014403 | 50 | 179 | 0.0 | 0.0 | 0.00 | 0.00 | 0.00 | 84 | 1007.8 |
| 20260509013904 | 50 | 179 | 0.0 | 0.0 | 0.00 | 0.00 | 0.00 | 84 | 1007.8 |
| 20260509013404 | 50 | 179 | 0.0 | 0.0 | 0.00 | 0.00 | 0.00 | 85 | 1007.8 |
| 20260509011904 | 50 | 179 | 0.0 | 0.0 | 0.00 | 0.00 | 0.00 | 83 | 1007.7 |
| 20260509011403 | 50 | 179 | 0.0 | 0.9 | 0.00 | 0.00 | 0.00 | 82 | 1007.5 |
| 20260509010904 | 50 | 140 | 0.0 | 0.0 | 0.00 | 0.00 | 0.00 | 81 | 1007.5 |
| 20260509010404 | 50 | 140 | 0.0 | 0.9 | 0.00 | 0.00 | 0.00 | 81 | 1007.5 |
| 20260509005903 | 51 | 322 | 0.0 | 0.9 | 0.00 | 0.00 | 0.00 | 80 | 1007.4 |
| 20260509004905 | 51 | 119 | 0.0 | 0.9 | 0.00 | 0.00 | 0.00 | 79 | 1007.3 |
| 20260509004404 | 51 | 128 | 0.0 | 0.0 | 0.00 | 0.00 | 0.00 | 78 | 1007.2 |
| 20260509003905 | 52 | 128 | 0.0 | 0.0 | 0.00 | 0.00 | 0.00 | 77 | 1007.1 |
| 20260509003405 | 52 | 128 | 0.0 | 0.9 | 0.00 | 0.00 | 0.00 | 76 | 1007.1 |
| 20260509002905 | 52 | 67 | 0.9 | 1.7 | 0.00 | 0.00 | 0.00 | 76 | 1006.9 |
| 20260509002405 | 53 | 45 | 0.0 | 2.6 | 0.00 | 0.00 | 0.00 | 75 | 1007.0 |
| 20260509001905 | 53 | 332 | 0.0 | 0.0 | 0.00 | 0.00 | 0.00 | 74 | 1006.9 |
| 20260509001405 | 53 | 332 | 0.0 | 0.9 | 0.00 | 0.00 | 0.00 | 73 | 1006.8 |
| 20260509000905 | 54 | 116 | 0.0 | 0.9 | 0.00 | 0.00 | 0.00 | 72 | 1006.8 |
| 20260509000405 | 55 | 73 | 0.0 | 0.9 | 0.00 | 0.00 | 0.00 | 71 | 1006.8 |
| 20260508235904 | 55 | 17 | 0.0 | 1.7 | 0.00 | 0.00 | 0.00 | 70 | 1006.7 |
| 20260508234905 | 55 | 332 | 0.0 | 1.7 | 0.00 | 0.00 | 0.00 | 69 | 1006.6 |
| 20260508233905 | 56 | 343 | 0.0 | 0.9 | 0.00 | 0.00 | 0.00 | 68 | 1006.6 |
| 20260508233405 | 56 | 299 | 0.0 | 1.7 | 0.00 | 0.00 | 0.00 | 67 | 1006.4 |
| 20260508232904 | 56 | 348 | 0.0 | 1.7 | 0.00 | 0.00 | 0.00 | 66 | 1006.3 |
| 20260508232405 | 57 | 345 | 0.0 | 1.7 | 0.00 | 0.00 | 0.00 | 66 | 1006.2 |
| 20260508231905 | 57 | 311 | 0.9 | 1.7 | 0.00 | 0.00 | 0.00 | 64 | 1006.2 |
| 20260508231404 | 57 | 356 | 0.0 | 1.7 | 0.00 | 0.00 | 0.00 | 62 | 1006.2 |
| 20260508230904 | 57 | 135 | 0.9 | 5.2 | 0.00 | 0.00 | 0.00 | 56 | 1006.2 |
| 20260508225905 | 57 | 299 | 1.7 | 4.3 | 0.00 | 0.00 | 0.00 | 56 | 1006.1 |
| 20260508225405 | 58 | 322 | 2.6 | 7.0 | 0.00 | 0.00 | 0.00 | 56 | 1006.1 |
| 20260508224905 | 58 | 318 | 0.9 | 4.3 | 0.00 | 0.00 | 0.00 | 56 | 1006.0 |
| 20260508224405 | 57 | 340 | 1.7 | 5.2 | 0.00 | 0.00 | 0.00 | 56 | 1006.0 |
| 20260508223905 | 57 | 316 | 1.7 | 6.1 | 0.00 | 0.00 | 0.00 | 56 | 1005.9 |
| 20260508223404 | 57 | 311 | 0.9 | 2.6 | 0.00 | 0.00 | 0.00 | 57 | 1005.9 |
| 20260508222905 | 57 | 344 | 1.7 | 4.3 | 0.00 | 0.00 | 0.00 | 56 | 1006.0 |
| 20260508222405 | 57 | 329 | 1.7 | 5.2 | 0.00 | 0.00 | 0.00 | 57 | 1006.0 |
| 20260508221904 | 57 | 313 | 2.6 | 7.8 | 0.00 | 0.00 | 0.00 | 57 | 1006.0 |
| 20260508221405 | 58 | 309 | 2.6 | 7.8 | 0.00 | 0.00 | 0.00 | 56 | 1006.0 |
| 20260508220905 | 57 | 306 | 1.7 | 5.2 | 0.00 | 0.00 | 0.00 | 57 | 1006.1 |
| 20260508215405 | 57 | 316 | 2.6 | 6.1 | 0.00 | 0.00 | 0.00 | 58 | 1006.2 |
| 20260508214905 | 58 | 317 | 1.7 | 7.0 | 0.00 | 0.00 | 0.00 | 56 | 1006.2 |
| 20260508213905 | 58 | 319 | 0.9 | 4.3 | 0.00 | 0.00 | 0.00 | 57 | 1006.2 |
| 20260508213405 | 58 | 305 | 1.7 | 4.3 | 0.00 | 0.00 | 0.00 | 56 | 1006.2 |
| 20260508212405 | 58 | 280 | 1.7 | 6.1 | 0.00 | 0.00 | 0.00 | 56 | 1006.2 |
| 20260508211905 | 58 | 295 | 1.7 | 6.1 | 0.00 | 0.00 | 0.00 | 56 | 1006.2 |
| 20260508211405 | 58 | 321 | 2.6 | 4.3 | 0.00 | 0.00 | 0.00 | 56 | 1006.2 |
| 20260508210904 | 58 | 327 | 3.5 | 7.0 | 0.00 | 0.00 | 0.00 | 55 | 1006.2 |
| 20260508210405 | 58 | 322 | 1.7 | 5.2 | 0.00 | 0.00 | 0.00 | 56 | 1006.1 |
| 20260508205904 | 58 | 337 | 2.6 | 6.1 | 0.00 | 0.00 | 0.00 | 55 | 1006.1 |
| 20260508205405 | 59 | 285 | 2.6 | 6.1 | 0.00 | 0.00 | 0.00 | 54 | 1006.2 |
| 20260508204905 | 59 | 317 | 1.7 | 5.2 | 0.00 | 0.00 | 0.00 | 53 | 1006.2 |
| 20260508203904 | 60 | 331 | 1.7 | 7.0 | 0.00 | 0.00 | 0.00 | 53 | 1006.0 |
| 20260508203405 | 60 | 325 | 2.6 | 7.0 | 0.00 | 0.00 | 0.00 | 52 | 1005.9 |
| 20260508202905 | 60 | 336 | 2.6 | 7.0 | 0.00 | 0.00 | 0.00 | 52 | 1005.8 |
| 20260508201904 | 60 | 318 | 2.6 | 8.7 | 0.00 | 0.00 | 0.00 | 53 | 1005.8 |
| 20260508201405 | 59 | 316 | 1.7 | 6.1 | 0.00 | 0.00 | 0.00 | 52 | 1005.9 |
| 20260508200905 | 59 | 322 | 2.6 | 6.1 | 0.00 | 0.00 | 0.00 | 53 | 1006.0 |
| 20260508200404 | 57 | 346 | 2.6 | 5.2 | 0.00 | 0.00 | 0.00 | 57 | 1006.1 |
| 20260508195904 | 57 | 340 | 2.6 | 4.3 | 0.00 | 0.00 | 0.00 | 58 | 1006.2 |
| 20260508195405 | 58 | 313 | 2.6 | 6.1 | 0.00 | 0.00 | 0.00 | 56 | 1006.1 |
| 20260508194905 | 58 | 334 | 3.5 | 7.0 | 0.00 | 0.00 | 0.00 | 53 | 1006.2 |
| 20260508194404 | 58 | 338 | 2.6 | 5.2 | 0.00 | 0.00 | 0.00 | 53 | 1006.1 |
| 20260508193404 | 59 | 336 | 3.5 | 10.4 | 0.00 | 0.00 | 0.00 | 52 | 1005.9 |
| 20260508192905 | 60 | 336 | 2.6 | 6.1 | 0.00 | 0.00 | 0.00 | 51 | 1005.8 |
| 20260508191905 | 61 | 324 | 1.7 | 7.0 | 0.00 | 0.00 | 0.00 | 48 | 1005.5 |
| 20260508191405 | 61 | 319 | 3.5 | 7.0 | 0.00 | 0.00 | 0.00 | 47 | 1005.4 |
| 20260508190905 | 61 | 316 | 3.5 | 7.8 | 0.00 | 0.00 | 0.00 | 47 | 1005.5 |
| 20260508190405 | 60 | 330 | 2.6 | 8.7 | 0.00 | 0.00 | 0.00 | 46 | 1005.5 |
| 20260508185905 | 60 | 323 | 4.3 | 7.8 | 0.00 | 0.00 | 0.00 | 46 | 1005.5 |
| 20260508184904 | 62 | 318 | 3.5 | 7.0 | 0.00 | 0.00 | 0.00 | 44 | 1005.5 |
| 20260508184405 | 62 | 326 | 4.3 | 7.8 | 0.00 | 0.00 | 0.00 | 45 | 1005.4 |
| 20260508183905 | 62 | 336 | 2.6 | 7.8 | 0.00 | 0.00 | 0.00 | 45 | 1005.4 |
| 20260508183406 | 62 | 342 | 2.6 | 7.0 | 0.00 | 0.00 | 0.00 | 45 | 1005.4 |
| 20260508182904 | 62 | 331 | 3.5 | 7.0 | 0.00 | 0.00 | 0.00 | 45 | 1005.5 |
| 20260508181405 | 62 | 316 | 2.6 | 7.8 | 0.00 | 0.00 | 0.00 | 46 | 1005.4 |
| 20260508180905 | 61 | 327 | 5.2 | 11.3 | 0.00 | 0.00 | 0.00 | 45 | 1005.3 |
| 20260508180404 | 61 | 310 | 1.7 | 6.1 | 0.00 | 0.00 | 0.00 | 48 | 1005.4 |
| 20260508175905 | 61 | 326 | 2.6 | 10.4 | 0.00 | 0.00 | 0.00 | 48 | 1005.5 |
| 20260508174904 | 61 | 317 | 2.6 | 7.8 | 0.00 | 0.00 | 0.00 | 48 | 1005.4 |
| 20260508174404 | 61 | 314 | 2.6 | 8.7 | 0.00 | 0.00 | 0.00 | 46 | 1005.4 |
| 20260508173405 | 63 | 309 | 3.5 | 7.8 | 0.00 | 0.00 | 0.00 | 46 | 1005.4 |
| 20260508172405 | 62 | 313 | 4.3 | 7.8 | 0.00 | 0.00 | 0.00 | 46 | 1005.5 |
| 20260508171905 | 61 | 349 | 2.6 | 5.2 | 0.00 | 0.00 | 0.00 | 47 | 1005.5 |
| 20260508170904 | 61 | 353 | 2.6 | 6.1 | 0.00 | 0.00 | 0.00 | 45 | 1005.5 |
| 20260508170405 | 61 | 328 | 2.6 | 10.4 | 0.00 | 0.00 | 0.00 | 47 | 1005.5 |
| 20260508165905 | 61 | 327 | 4.3 | 7.8 | 0.00 | 0.00 | 0.00 | 46 | 1005.6 |
| 20260508165405 | 61 | 331 | 2.6 | 6.1 | 0.00 | 0.00 | 0.00 | 46 | 1005.8 |
| 20260508164405 | 60 | 320 | 1.7 | 7.8 | 0.00 | 0.00 | 0.00 | 46 | 1006.0 |
| 20260508163904 | 61 | 322 | 2.6 | 7.8 | 0.00 | 0.00 | 0.00 | 46 | 1006.1 |
| 20260508161905 | 61 | 332 | 1.7 | 6.1 | 0.00 | 0.00 | 0.00 | 45 | 1006.1 |
| 20260508161405 | 61 | 341 | 2.6 | 7.0 | 0.00 | 0.00 | 0.00 | 44 | 1006.2 |
| 20260508160904 | 61 | 336 | 2.6 | 6.1 | 0.00 | 0.00 | 0.00 | 42 | 1006.2 |
| 20260508160405 | 61 | 328 | 2.6 | 6.1 | 0.00 | 0.00 | 0.00 | 42 | 1006.3 |
| 20260508155404 | 61 | 333 | 2.6 | 7.0 | 0.00 | 0.00 | 0.00 | 44 | 1006.5 |
| 20260508154905 | 61 | 326 | 1.7 | 6.1 | 0.00 | 0.00 | 0.00 | 44 | 1006.4 |
| 20260508154404 | 60 | 314 | 2.6 | 7.8 | 0.00 | 0.00 | 0.00 | 47 | 1006.4 |
| 20260508153405 | 60 | 337 | 1.7 | 6.1 | 0.00 | 0.00 | 0.00 | 46 | 1006.5 |
| 20260508152405 | 59 | 332 | 2.6 | 7.8 | 0.00 | 0.00 | 0.00 | 53 | 1006.6 |
| 20260508151905 | 59 | 348 | 2.6 | 6.1 | 0.00 | 0.00 | 0.00 | 51 | 1006.6 |
| 20260508151404 | 58 | 353 | 2.6 | 5.2 | 0.00 | 0.00 | 0.00 | 52 | 1006.7 |
| 20260508150904 | 59 | 318 | 2.6 | 6.1 | 0.00 | 0.00 | 0.00 | 49 | 1006.7 |
| 20260508150405 | 58 | 291 | 1.7 | 7.0 | 0.00 | 0.00 | 0.00 | 52 | 1006.6 |
| 20260508145905 | 58 | 320 | 2.6 | 7.0 | 0.00 | 0.00 | 0.00 | 48 | 1006.6 |
| 20260508145404 | 58 | 332 | 3.5 | 7.0 | 0.00 | 0.00 | 0.00 | 45 | 1006.6 |
| 20260508144905 | 58 | 330 | 2.6 | 7.8 | 0.00 | 0.00 | 0.00 | 49 | 1006.6 |
| 20260508144404 | 57 | 306 | 1.7 | 7.0 | 0.00 | 0.00 | 0.00 | 52 | 1006.6 |
| 20260508143905 | 58 | 290 | 2.6 | 8.7 | 0.00 | 0.00 | 0.00 | 50 | 1006.6 |
| 20260508142904 | 57 | 356 | 2.6 | 5.2 | 0.00 | 0.00 | 0.00 | 54 | 1006.5 |
| 20260508142405 | 57 | 0 | 1.7 | 7.0 | 0.00 | 0.00 | 0.00 | 59 | 1006.5 |
| 20260508141904 | 56 | 307 | 1.7 | 7.0 | 0.00 | 0.00 | 0.00 | 60 | 1006.6 |
| 20260508141404 | 56 | 344 | 1.7 | 6.1 | 0.00 | 0.00 | 0.00 | 61 | 1006.6 |
| 20260508140905 | 56 | 311 | 2.6 | 6.1 | 0.00 | 0.00 | 0.00 | 62 | 1006.6 |
| 20260508140405 | 56 | 293 | 2.6 | 6.1 | 0.00 | 0.00 | 0.00 | 62 | 1006.6 |
| 20260508135905 | 55 | 347 | 1.7 | 2.6 | 0.00 | 0.00 | 0.00 | 63 | 1006.5 |
| 20260508134904 | 55 | 277 | 1.7 | 6.1 | 0.00 | 0.00 | 0.00 | 65 | 1006.6 |
| 20260508133904 | 54 | 327 | 2.6 | 6.1 | 0.00 | 0.00 | 0.00 | 67 | 1006.8 |
| 20260508133404 | 54 | 350 | 2.6 | 7.0 | 0.00 | 0.00 | 0.00 | 65 | 1006.9 |
| 20260508132905 | 54 | 297 | 2.6 | 7.0 | 0.00 | 0.00 | 0.00 | 66 | 1007.0 |
| 20260508132404 | 54 | 305 | 1.7 | 6.1 | 0.00 | 0.00 | 0.00 | 66 | 1007.0 |
| 20260508131905 | 54 | 340 | 2.6 | 5.2 | 0.00 | 0.00 | 0.00 | 65 | 1007.0 |
| 20260508131405 | 54 | 335 | 2.6 | 7.8 | 0.00 | 0.00 | 0.00 | 66 | 1007.1 |
| 20260508130904 | 54 | 329 | 2.6 | 6.1 | 0.00 | 0.00 | 0.00 | 66 | 1007.0 |
| 20260508130405 | 54 | 299 | 0.9 | 6.1 | 0.00 | 0.00 | 0.00 | 66 | 1007.0 |
| 20260508125904 | 53 | 317 | 1.7 | 5.2 | 0.00 | 0.00 | 0.00 | 66 | 1007.1 |
| 20260508125404 | 53 | 328 | 2.6 | 6.1 | 0.00 | 0.00 | 0.00 | 67 | 1007.0 |
| 20260508124904 | 53 | 338 | 2.6 | 6.1 | 0.00 | 0.00 | 0.00 | 65 | 1007.1 |
| 20260508124405 | 53 | 338 | 2.6 | 7.0 | 0.00 | 0.00 | 0.00 | 66 | 1007.0 |
| 20260508123904 | 53 | 320 | 1.7 | 7.0 | 0.00 | 0.00 | 0.00 | 67 | 1007.1 |
| 20260508123405 | 53 | 330 | 2.6 | 6.1 | 0.00 | 0.00 | 0.00 | 67 | 1007.0 |
| 20260508122904 | 53 | 338 | 1.7 | 4.3 | 0.00 | 0.00 | 0.00 | 67 | 1007.0 |
| 20260508122405 | 52 | 334 | 2.6 | 5.2 | 0.00 | 0.00 | 0.00 | 67 | 1006.9 |
| 20260508121904 | 52 | 334 | 1.7 | 5.2 | 0.00 | 0.00 | 0.00 | 67 | 1006.9 |
| 20260508121404 | 52 | 333 | 1.7 | 5.2 | 0.00 | 0.00 | 0.00 | 67 | 1006.9 |
| 20260508120904 | 52 | 338 | 2.6 | 5.2 | 0.00 | 0.00 | 0.00 | 67 | 1006.8 |
| 20260508120405 | 52 | 308 | 1.7 | 4.3 | 0.00 | 0.00 | 0.00 | 68 | 1006.8 |
| 20260508115405 | 52 | 324 | 1.7 | 2.6 | 0.00 | 0.00 | 0.00 | 70 | 1006.8 |
| 20260508114405 | 51 | 324 | 1.7 | 5.2 | 0.00 | 0.00 | 0.00 | 71 | 1006.7 |
| 20260508113905 | 51 | 329 | 2.6 | 6.1 | 0.00 | 0.00 | 0.00 | 73 | 1006.6 |
| 20260508113404 | 51 | 335 | 1.7 | 2.6 | 0.00 | 0.00 | 0.00 | 74 | 1006.6 |
| 20260508112905 | 50 | 323 | 1.7 | 2.6 | 0.00 | 0.00 | 0.00 | 77 | 1006.6 |